This is the latest recevied weather packets stored in our database for station/object HP1MRA-15. If no packets are shown the sender has not sent any weather packets the latest 10 day(s).
| Time | Temp. | Humidity | Pressure | Rain* | Wind** | Luminosity | Snow |
|---|---|---|---|---|---|---|---|
| 1777828376 | 36.11° C | 55% | 1004 hPa | 0 mm | - | - | - |
| 1777828076 | 35.56° C | 57% | 1004.1 hPa | 0 mm | - | - | - |
| 1777827776 | 35° C | 57% | 1004.2 hPa | 0 mm | - | - | - |
| 1777827476 | 35° C | 58% | 1004.3 hPa | 0 mm | - | - | - |
| 1777827176 | - | - | 1004.5 hPa | 0 mm | - | - | - |
| 1777826875 | 35° C | 58% | 1004.6 hPa | 0 mm | - | - | - |
| 1777826576 | 35.56° C | 55% | 1004.5 hPa | 0 mm | - | - | - |
| 1777826276 | 36.11° C | 55% | 1004.5 hPa | 0 mm | - | - | - |
| 1777825976 | 36.11° C | 55% | 1004.6 hPa | 0 mm | - | - | - |
| 1777825675 | 36.11° C | 58% | 1004.6 hPa | 0 mm | - | - | - |
| 1777825376 | 35.56° C | 56% | 1004.6 hPa | 0 mm | - | - | - |
| 1777825076 | 35.56° C | 57% | 1004.8 hPa | 0 mm | - | - | - |
| 1777824775 | 35.56° C | 56% | 1004.9 hPa | 0 mm | - | - | - |
| 1777824475 | 35.56° C | 59% | 1004.8 hPa | 0 mm | - | - | - |
| 1777824176 | 33.89° C | 62% | 1004.8 hPa | 0 mm | - | - | - |
| 1777823874 | 33.89° C | 61% | 1004.9 hPa | 0 mm | - | - | - |
| 1777823574 | 33.89° C | 59% | 1005 hPa | 0 mm | - | - | - |
| 1777823275 | 34.44° C | 60% | 1005 hPa | 0 mm | - | - | - |
| 1777822974 | 34.44° C | 58% | 1005.1 hPa | 0 mm | - | - | - |
| 1777822674 | 34.44° C | 57% | 1005.1 hPa | 0 mm | - | - | - |
| 1777822375 | 34.44° C | 60% | 1005.1 hPa | 0 mm | - | - | - |
| 1777822074 | 33.89° C | 61% | 1005 hPa | 0 mm | - | - | - |
| 1777821774 | 33.89° C | 59% | 1005 hPa | 0 mm | - | - | - |
| 1777821474 | 32.78° C | 64% | 1004.9 hPa | 0 mm | - | - | - |
| 1777821174 | 32.22° C | 64% | 1004.9 hPa | 0 mm | - | - | - |
* Rain latest hour (hover to see other rain measurements)
** Current wind speed in m/s (hover to see current wind gust speed)